SCP
0 0 0 0 0 0 0 0 0 0 0 0 0 0 0 0 0 0 0 0 0 0 0 0 0 0 0 0 0 0 0 0 0 0 0 0 0 0 0 0 0 0 0
0 0 0 0 0 0 0 0 0 0 0 0 0 0 0 0 0 0 0 0 0 0 0 0 0 0 0 0 0 0 0 0 0 0 0 0 0 0 0 0 0 0 0
0 0 0 0 0 0 0 0 0 0 0 0 0 0 0 0 0 0 0 0 0 0 0 0 0 0 0 0 0 0 0 0 0 0 0 0 0 0 0 0 0 0 0
0 0 0 0 0 0 0 0 0 0 0 0 0 0 0 0 0 0 0 0 0 0 0 0 0 0 0 0 0 0 0 0 0 0 0 0 0 0 0 0 0 0 0
0 0 0 0 0 0 0 0 0 0 0 0 0 0 0 0 0 0 0 0 0 0 0 0 0 0 0 0 0 0 0 0 0 0 0 0 0 0 0 0 0 0 0
0 0 0 0 0 0 0 0 0 0 0 0 0 0 0 0 0 0 0 0 0 0 0 0 0 0 0 0 0 0 0 0 0 0 0 0 0 0 0 0 0 0 0
0 0 0 0 0 0 0 0 0 0 0 0 0 0 0 0 0 0 0 0 0 0 0 0 0 0 0 0 0 0 0 0 0 0 0 0 0 0 0 0 0 0 0
0 0 0 0 0 0 0 0 0 0 0 0 0 0 0 0 0 0 0 0 0 0 0 0 0 0 0 0 0 0 0 0 0 0 0 0 0 0 0 0 0 0 0
0 0 0 0 0 0 0 0 0 0 0 0 0 0 0 0 0 0 0 0 0 0 0 0 0 0 0 0 0 0 0 0 0 0 0 0 0 0 0 0 0 0 0
0 0 0 0 0 0 0 0 0 0 0 0 0 0 0 0 0 0 0 0 0 0 0 0 0 0 0 0 0 0 0 0 0 0 0 0 0 0 0 0 0 0 0
0 0 0 0 0 0 0 0 0 0 0 0 0 0 0 0 0 0 0 0 0 0 0 0 0 0 0 0 0 0 0 0 0 0 0 0 0 0 0 0 0 0 0
0 0 0 0 0 0 0 0 0 0 0 0 0 0 0 0 0 0 0 0 0 0 0 0 0 0 0 0 0 0 0 0 0 0 0 0 0 0 0 0 0 0 0
0 0 0 0 0 0 0 0 0 0 0 0 0 0 0 0 0 0 0 0 0 0 0 0 0 0 0 0 0 0 0 0 0 0 0 0 0 0 0 0 0 0 0
0 0 0 0 0 0 0 0 0 0 0 0 0 0 0 0 0 0 0 0 0 0 0 0 0 0 0 0 0 0 0 0 0 0 0 0 0 0 0 0 0 0 0
0 0 0 0 0 0 0 0 0 0 0 0 0 0 0 0 0 0 0 0 0 0 0 0 0 0 0 0 0 0 0 0 0 0 0 0 0 0 0 0 0 0 0
0 0 0 0 0 0 0 0 0 0 0 0 0 0 0 0 0 0 0 0 0 0 0 0 0 0 0 0 0 0 0 0 0 0 0 0 0 0 0 0 0 0 0
0 0 0 0 0 0 0 0 0 0 0 0 0 0 0 0 0 0 0 0 0 0 0 0 0 0 0 0 0 0 0 0 0 0 0 0 0 0 0 0 0 0 0
0 0 0 0 0 0 0 0 0 0 0 0 0 0 0 0 0 0 0 0 0 0 0 0 0 0 0 0 0 0 0 0 0 0 0 0 0 0 0 0 0 0 0
0 0 0 0 0 0 0 0 0 0 0 0 0 0 0 0 0 0 0 0 0 0 0 0 0 0 0 0 0 0 0 0 0 0 0 0 0 0 0 0 0 0 0
0 0 0 0 0 0 0 0 0 0 0 0 0 0 0 0 0 0 0 0 0 0 0 0 0 0 0 0 0 0 0 0 0 0 0 0 0 0 0 0 0 0 0
0 0 0 0 0 0 0 0 0 0 0 0 0 0 0 0 0 0 0 0 0 0 0 0 0 0 0 0 0 0 0 0 0 0 0 0 0 0 0 0 0 0 0
0 0 0 0 0 0 0 0 0 0 0 0 0 0 0 0 0 0 0 0 0 0 0 0 0 0 0 0 0 0 0 0 0 0 0 0 0 0 0 0 0 0 0
0 0 0 0 0 0 0 0 0 0 0 0 0 0 0 0 0 0 0 0 0 0 0 0 0 0 0 0 0 0 0 0 0 0 0 0 0 0 0 0 0 0 0
0 0 0 0 0 0 0 0 0 0 0 0 0 0 0 0 0 0 0 0 0 0 0 0 0 0 0 0 0 0 0 0 0 0 0 0 0 0 0 0 0 0 0
0 0 0 0 0 0 0 0 0 0 0 0 0 0 0 0 0 0 0 0 0 0 0 0 0 0 0 0 0 0 0 0 0 0 0 0 0 0 0 0 0 0 0
0 0 0 0 0 0 0 0 0 0 0 0 0 0 0 0 0 0 0 0 0 0 0 0 0 0 0 0 0 0 0 0 0 0 0 0 0 0 0 0 0 0 0
Wind_Speed
5 7 8 8 8 8 8 8 8 8 8 9 9 9 9 9 8 8 8 8 8 8 8 7 7 7 7 7 7 7 7 7 7 7 7 6 6 6 5 5 4 4 8
6 8 9 9 9 9 8 8 8 9 9 9 9 9 9 9 9 9 8 7 8 8 7 7 7 7 7 7 7 7 6 6 6 6 6 5 5 5 5 5 6 5 7
7 9 9 10 10 9 8 8 9 9 9 9 9 9 9 10 10 10 9 9 8 8 8 7 7 7 7 7 7 6 5 5 4 3 3 2 4 6 6 7 7 6 7
8 9 9 10 10 9 9 9 9 9 9 9 9 9 9 10 10 10 10 9 9 9 9 9 8 7 7 7 7 5 4 4 3 2 1 2 3 7 7 7 7 6 6
9 10 9 10 9 9 9 9 9 9 9 9 9 10 10 10 10 10 10 10 10 9 10 10 9 8 8 8 7 6 5 4 4 3 3 4 4 7 8 7 6 5 5
9 10 9 10 9 9 9 9 9 9 10 9 10 10 10 10 10 10 10 10 10 10 10 10 9 9 8 8 8 8 6 5 4 3 3 4 4 7 7 7 6 6 5
9 9 9 10 9 9 9 9 9 9 10 10 10 10 10 10 10 10 10 10 10 10 9 9 9 8 8 9 8 8 7 5 3 3 4 4 4 7 7 7 6 6 5
8 9 9 9 9 9 9 10 10 10 10 9 9 10 10 10 10 10 9 9 10 9 9 9 8 7 7 7 7 8 7 6 4 5 4 4 7 8 7 7 6 6 6
7 8 8 7 7 9 9 10 9 9 9 8 8 8 8 9 10 10 9 9 9 8 8 8 7 7 6 6 6 6 7 6 4 3 5 5 8 8 7 7 7 7 7
6 6 7 8 7 7 6 8 8 7 7 6 6 6 6 7 8 9 9 8 8 8 7 6 6 6 5 5 4 5 5 4 3 3 4 6 10 9 7 7 7 7 7
5 5 6 6 6 6 6 7 6 6 5 5 4 4 4 3 4 5 8 8 7 6 6 5 5 4 4 3 3 3 3 2 4 4 4 9 9 9 8 8 7 7 7
5 5 5 5 5 5 5 5 3 3 3 3 2 3 2 2 3 5 6 6 5 4 3 3 3 2 1 1 1 1 1 3 3 4 5 10 9 9 9 8 8 7 7
5 4 4 5 5 5 3 3 1 1 1 1 1 2 2 3 3 3 3 3 2 3 1 1 1 1 1 2 2 2 3 4 4 4 5 10 10 10 9 9 8 7 7
6 4 4 4 5 5 3 2 2 1 1 1 1 3 2 1 2 2 2 2 2 1 1 1 1 2 3 3 3 3 4 4 4 3 4 9 9 9 9 9 8 7 7
6 5 4 4 5 4 3 1 3 2 1 2 1 2 3 2 2 2 2 2 2 2 2 2 2 4 4 4 4 4 5 5 4 4 3 8 8 8 8 8 8 8 8
7 6 4 5 4 4 3 2 2 2 2 2 1 2 3 2 2 3 3 3 2 2 2 2 3 4 3 3 4 4 4 4 4 4 4 5 7 7 7 8 7 7 7
7 7 5 4 4 4 4 3 2 2 2 2 2 2 3 3 3 4 3 2 2 2 3 3 4 3 3 3 3 3 3 3 3 3 4 3 3 6 6 6 7 7 7
6 7 6 4 4 4 3 3 2 3 3 2 2 3 3 4 4 4 3 2 2 2 2 2 2 2 3 3 2 2 2 2 3 2 2 3 3 3 4 5 6 6 6
6 6 7 5 4 4 3 3 3 3 2 2 3 3 4 4 4 4 2 2 3 3 2 2 3 2 2 2 1 1 1 1 1 2 2 2 3 3 2 4 5 5 5
5 6 7 5 4 4 2 3 2 3 2 3 3 3 3 3 4 3 2 3 3 3 3 3 3 2 1 1 1 2 1 1 1 1 1 1 2 3 3 3 2 2 3
5 5 6 6 5 4 2 2 2 2 1 2 2 3 2 2 3 3 3 3 3 2 2 2 2 2 1 1 2 1 1 1 1 1 0 1 1 2 2 2 2 2 1
3 3 5 6 5 5 2 2 2 2 2 2 1 2 2 3 3 2 3 2 2 2 2 3 2 1 1 1 1 1 1 2 2 1 1 0 1 1 1 2 2 2 2
4 3 3 5 6 5 4 2 2 2 1 1 1 1 2 2 2 2 2 2 2 2 2 2 2 2 1 1 1 1 1 1 1 1 0 0 1 1 1 1 2 2 2
4 3 3 4 4 5 4 3 3 2 1 1 1 1 1 1 2 2 2 1 1 2 2 1 2 1 1 1 2 2 1 1 1 1 2 1 1 1 0 1 1 2 2
4 3 2 3 4 4 4 4 3 2 1 1 1 2 1 1 1 1 1 1 1 1 2 2 2 1 1 0 0 1 2 1 0 1 1 1 1 1 0 0 1 1 2
5 4 3 3 3 3 3 3 3 3 2 1 2 1 1 1 1 2 1 1 1 1 1 2 2 1 1 0 0 0 0 0 1 0 1 0 1 1 0 0 1 1 1
Wind_Direction
74 81 68 56 53 54 50 50 54 59 60 59 60 60 60 59 59 58 57 57 56 58 63 68 74 81 81 83 83 83 85 93 102 102 101 102 103 103 95 91 88 89 106
90 88 73 61 60 58 56 58 60 62 63 63 64 63 64 62 61 61 62 60 60 58 58 65 75 80 82 83 82 81 82 90 104 108 108 108 110 112 105 94 84 96 99
91 94 79 66 64 61 59 62 65 64 63 62 63 63 65 64 61 59 62 62 62 59 59 63 72 79 78 80 81 83 86 89 102 117 118 120 115 113 106 96 94 95 96
84 81 78 72 68 66 63 65 68 67 65 64 64 64 66 67 65 62 62 62 65 64 63 62 69 75 75 73 71 70 83 92 85 94 96 96 101 104 101 98 93 93 95
83 84 84 77 72 71 69 69 71 70 68 67 68 66 68 71 72 68 67 66 68 68 66 64 64 66 69 65 60 55 71 86 81 62 66 76 75 96 97 95 90 89 93
92 91 93 90 84 78 75 75 75 73 72 71 70 68 69 72 73 73 70 69 70 71 71 68 65 61 64 64 58 52 63 70 70 69 80 82 82 93 95 92 89 88 90
101 102 100 98 95 88 82 81 80 78 76 75 74 73 73 74 77 76 72 71 73 75 75 75 73 64 62 62 58 54 51 52 67 76 84 86 86 91 92 92 87 84 85
103 107 105 103 100 95 90 88 86 84 82 81 79 78 77 77 78 79 75 72 74 76 75 75 76 72 66 63 58 53 50 41 61 72 78 87 93 91 91 89 85 84 83
105 114 122 117 105 99 97 98 95 94 93 92 90 88 87 87 87 84 80 74 74 75 77 76 77 78 77 74 63 54 51 45 47 62 79 81 91 90 89 86 85 86 82
106 110 119 128 126 122 111 108 109 109 111 111 110 112 109 101 99 97 90 83 81 80 81 83 87 91 92 88 74 63 48 40 63 68 75 85 85 85 89 87 84 87 84
114 116 115 121 126 125 125 123 134 137 140 145 152 162 152 138 125 107 98 101 95 91 89 94 101 108 108 109 101 69 54 74 69 72 75 86 86 84 85 87 86 88 88
124 118 119 116 118 115 110 131 153 152 156 178 172 152 151 106 94 102 113 115 116 113 112 120 131 128 136 129 120 99 74 76 70 75 78 84 83 82 81 81 85 87 86
111 102 117 122 116 107 104 116 113 109 131 160 125 114 107 105 124 126 141 145 154 160 145 134 172 177 106 87 76 79 75 72 68 68 76 79 80 82 82 82 82 82 81
119 116 106 109 113 115 114 117 119 109 104 74 66 86 88 87 94 102 115 128 129 104 74 74 38 69 80 87 82 78 78 78 78 78 80 80 80 82 82 81 80 80 79
127 122 108 105 104 108 107 117 105 89 68 83 55 79 90 90 110 112 98 96 89 76 64 50 43 48 46 53 64 71 78 83 88 82 80 81 82 83 82 79 77 76 78
131 126 122 119 114 120 120 106 102 114 105 80 48 72 88 82 92 95 89 79 80 72 69 74 64 59 46 51 52 57 73 80 93 99 99 85 81 80 81 82 79 78 77
130 125 119 120 115 106 98 88 97 82 78 78 56 54 78 78 71 75 75 78 78 72 60 60 64 63 63 59 48 52 65 69 84 96 108 110 96 83 85 87 84 80 78
130 126 123 112 104 97 95 90 76 71 60 61 56 34 48 68 73 73 71 70 76 75 73 71 69 68 64 62 53 41 52 60 72 85 99 114 117 108 95 93 89 85 80
126 129 129 120 113 103 97 96 71 72 61 58 55 46 33 40 68 74 61 60 66 64 63 59 59 63 69 68 73 78 57 59 62 84 89 101 119 123 119 109 102 97 87
123 126 126 121 120 110 94 94 81 65 51 56 58 58 39 41 61 72 73 67 62 63 58 61 62 52 59 72 57 69 78 97 68 80 93 98 117 123 123 125 122 110 106
132 139 134 134 129 112 96 98 100 92 70 62 59 64 46 55 64 67 63 65 60 70 70 75 79 59 38 62 63 38 0 40 82 95 94 91 100 117 126 134 143 131 122
124 135 138 132 121 114 109 111 119 110 96 85 58 66 47 56 58 75 82 78 77 76 69 70 76 53 4 37 90 86 38 5 358 348 55 100 107 100 121 127 126 119 116
130 127 116 123 124 127 127 100 88 83 83 73 66 55 45 68 68 58 73 85 104 104 104 101 96 85 43 345 25 90 118 189 304 321 328 68 69 75 71 83 102 108 111
137 134 121 114 120 125 128 119 122 128 134 150 145 147 109 82 87 77 76 68 87 95 109 118 98 93 95 8 348 360 15 142 140 318 322 5 63 79 75 53 89 111 105
128 121 110 102 103 110 121 133 140 138 155 152 144 142 136 127 117 105 112 118 113 121 130 108 103 101 100 110 19 346 344 350 27 136 262 306 332 338 68 116 101 89 101
133 123 113 108 98 99 118 145 147 148 154 149 149 154 162 166 171 160 150 167 178 150 141 141 144 151 174 174 140 241 260 312 296 156 158 250 281 274 275 84 107 109 108